EFTU Weather Reports


time (UTC)temp
F
wind
direction
speed
knots
gust
knots
rain 1hr
in
rain 24hr
in
rain mn
in
humidity
%
barometer
mb
20260507102728 53 277 6.1 12.2 0.00 0.00 0.00 21 1016.2
20260507100727 53 307 7.0 11.3 0.00 0.00 0.00 21 1016.2
20260507094728 53 227 4.3 8.7 0.00 0.00 0.00 21 1016.1
20260507090728 52 283 5.2 10.4 0.00 0.00 0.00 21 1016.3
20260507084727 51 270 5.2 7.8 0.00 0.00 0.00 23 1016.3
20260507082728 51 280 2.6 7.0 0.00 0.00 0.00 23 1016.3
20260507080727 50 156 3.5 7.8 0.00 0.00 0.00 22 1016.3
20260507074727 49 254 1.7 3.5 0.00 0.00 0.00 22 1016.4
20260507072727 49 105 2.6 6.1 0.00 0.00 0.00 24 1016.5
20260507070727 49 60 4.3 7.0 0.00 0.00 0.00 27 1016.4
20260507064727 47 111 5.2 7.8 0.00 0.00 0.00 26 1016.5
20260507062727 46 95 6.1 7.8 0.00 0.00 0.00 27 1016.4
20260507060727 45 102 6.1 7.8 0.00 0.00 0.00 34 1016.4
20260507055051 43 93 6.1 8.7 0.00 0.00 0.00 35 1016.4
20260507052727 42 79 5.2 7.8 0.00 0.00 0.00 38 1016.3
20260507050726 40 94 5.2 7.8 0.00 0.00 0.00 43 1016.3
20260507044727 39 91 3.5 4.3 0.00 0.00 0.00 50 1016.3
20260507042726 35 105 1.7 3.5 0.00 0.00 0.00 55 1016.4
20260507040728 33 73 0.9 1.7 0.00 0.00 0.00 64 1016.4
20260507034727 28 77 0.9 1.7 0.00 0.00 0.00 75 1016.4
20260507032727 26 100 1.7 2.6 0.00 0.00 0.00 70 1016.3
20260507030728 26 53 1.7 1.7 0.00 0.00 0.00 72 1016.3
20260507024726 24 23 1.7 2.6 0.00 0.00 0.00 73 1016.3
20260507023052 24 97 0.9 1.7 0.00 0.00 0.00 73 1016.2
20260507020726 24 108 1.7 1.7 0.00 0.00 0.00 75 1016.2
20260507014726 25 52 1.7 1.7 0.00 0.00 0.00 72 1016.1
20260507012726 24 22 1.7 3.5 0.00 0.00 0.00 76 1016.0
20260507010726 24 9 1.7 2.6 0.00 0.00 0.00 75 1016.0
20260507004726 24 21 1.7 1.7 0.00 0.00 0.00 78 1015.8
20260507002727 25 25 1.7 2.6 0.00 0.00 0.00 78 1015.7
20260507000726 25 101 0.9 1.7 0.00 0.00 0.00 68 1015.6
20260506234727 26 130 1.7 1.7 0.00 0.00 0.00 71 1015.5
20260506232726 26 59 0.9 1.7 0.00 0.00 0.00 71 1015.4
20260506230727 26 100 1.7 2.6 0.00 0.00 0.00 74 1015.4
20260506224725 27 111 1.7 2.6 0.00 0.00 0.00 68 1015.4
20260506222726 27 123 0.9 1.7 0.00 0.00 0.00 64 1015.3
20260506220726 28 67 0.9 1.7 0.00 0.00 0.00 64 1015.3
20260506214726 28 351 1.7 3.5 0.00 0.00 0.00 61 1015.2
20260506212726 28 345 0.9 1.7 0.00 0.00 0.00 62 1015.3
20260506210726 28 41 1.7 1.7 0.00 0.00 0.00 72 1015.1
20260506202725 32 129 0.9 1.7 0.00 0.00 0.00 50 1014.9
20260506200726 33 86 0.9 0.9 0.00 0.00 0.00 52 1015.0
20260506194725 34 317 0.9 1.7 0.00 0.00 0.00 46 1014.9
20260506192725 37 316 2.6 4.3 0.00 0.00 0.00 42 1015.0
20260506190725 41 312 3.5 5.2 0.00 0.00 0.00 32 1014.8
20260506184725 42 289 3.5 4.3 0.00 0.00 0.00 30 1014.7
20260506182726 44 289 3.5 4.3 0.00 0.00 0.00 26 1014.7
20260506180725 46 289 4.3 5.2 0.00 0.00 0.00 24 1014.7
20260506174726 45 280 5.2 7.8 0.00 0.00 0.00 26 1014.6
20260506172724 47 287 6.1 7.8 0.00 0.00 0.00 24 1014.5
20260506170725 47 291 6.1 8.7 0.00 0.00 0.00 23 1014.5
20260506164724 47 302 6.1 10.4 0.00 0.00 0.00 23 1014.5
20260506162725 48 311 7.0 12.2 0.00 0.00 0.00 22 1014.4
20260506160724 50 285 7.0 11.3 0.00 0.00 0.00 21 1014.3
20260506154725 49 302 8.7 14.8 0.00 0.00 0.00 22 1014.3
20260506152725 50 309 5.2 10.4 0.00 0.00 0.00 22 1014.3
20260506150724 49 297 7.0 12.2 0.00 0.00 0.00 21 1014.3
20260506144724 51 297 8.7 13.9 0.00 0.00 0.00 21 1014.4
20260506142724 50 305 5.2 16.5 0.00 0.00 0.00 22 1014.3
20260506140724 51 279 7.8 13.0 0.00 0.00 0.00 22 1014.4
20260506134724 50 280 7.8 13.9 0.00 0.00 0.00 20 1014.4
20260506132724 50 312 8.7 15.6 0.00 0.00 0.00 21 1014.5
20260506130723 50 276 8.7 12.2 0.00 0.00 0.00 21 1014.4
20260506124723 51 296 11.3 17.4 0.00 0.00 0.00 22 1014.3
20260506122723 49 318 7.8 13.9 0.00 0.00 0.00 22 1014.5
20260506120724 49 312 7.8 16.5 0.00 0.00 0.00 22 1014.3
20260506114724 49 324 11.3 18.2 0.00 0.00 0.00 22 1014.3
20260506112724 49 283 10.4 17.4 0.00 0.00 0.00 25 1014.3
20260506110724 51 281 9.6 16.5 0.00 0.00 0.00 26 1014.2